Hourly Weather Runnyy

Today, 18 April, Sunday

Time Temperature Precipitation Wind Pressure Humidity
00:00 +8°C° 0 mm 2 mps 763 mmHg 91%
01:00 +9°C° 0 mm 2 mps 763 mmHg 90%
02:00 +9°C° 0 mm 2 mps 762 mmHg 89%
03:00 +10°C° 0 mm 1 mps 762 mmHg 88%
04:00 +10°C° 0 mm 1 mps 762 mmHg 87%
05:00 +9°C° 0 mm 0 mps 762 mmHg 85%
06:00 +9°C° 0 mm 0 mps 761 mmHg 84%
07:00 +11°C° 0 mm 1 mps 761 mmHg 83%
08:00 +10°C° 0 mm 2 mps 761 mmHg 82%
09:00 +10°C° 0 mm 2 mps 761 mmHg 81%
10:00 +12°C° 0.2 mm 2 mps 761 mmHg 82%
11:00 +12°C° 0.2 mm 2 mps 761 mmHg 83%
12:00 +12°C° 0.2 mm 1 mps 760 mmHg 85%
13:00 +12°C° 0.7 mm 2 mps 760 mmHg 87%
14:00 +11°C° 0.7 mm 3 mps 760 mmHg 88%
15:00 +11°C° 0.7 mm 3 mps 760 mmHg 90%
16:00 +10°C° 1 mm 3 mps 760 mmHg 92%
17:00 +10°C° 1 mm 3 mps 759 mmHg 93%
18:00 +10°C° 1 mm 2 mps 759 mmHg 94%
19:00 +10°C° 0.3 mm 2 mps 759 mmHg 95%
20:00 +10°C° 0.3 mm 2 mps 760 mmHg 96%
21:00 +11°C° 0.3 mm 1 mps 760 mmHg 96%
22:00 +12°C° 0.3 mm 1 mps 759 mmHg 97%
23:00 +12°C° 0.3 mm 1 mps 759 mmHg 97%

Tomorrow, 19 April, Monday

Time Temperature Precipitation Wind Pressure Humidity
00:00 +12°C° 0.3 mm 1 mps 759 mmHg 97%
01:00 +12°C° 0.2 mm 1 mps 759 mmHg 97%
02:00 +12°C° 0.2 mm 1 mps 759 mmHg 98%
03:00 +12°C° 0.2 mm 1 mps 759 mmHg 98%
04:00 +12°C° 0.3 mm 1 mps 759 mmHg 97%
05:00 +12°C° 0.3 mm 1 mps 759 mmHg 97%
06:00 +12°C° 0.3 mm 1 mps 759 mmHg 97%
07:00 +12°C° 0.2 mm 1 mps 759 mmHg 94%
08:00 +13°C° 0.2 mm 1 mps 759 mmHg 90%
09:00 +13°C° 0.2 mm 1 mps 759 mmHg 87%
10:00 +13°C° 0.2 mm 1 mps 759 mmHg 88%
11:00 +13°C° 0.2 mm 1 mps 759 mmHg 88%
12:00 +13°C° 0.2 mm 1 mps 759 mmHg 89%
13:00 +14°C° 0.3 mm 1 mps 758 mmHg 87%
14:00 +14°C° 0.3 mm 1 mps 758 mmHg 86%
15:00 +15°C° 0.3 mm 1 mps 758 mmHg 84%
16:00 +14°C° 1.1 mm 1 mps 758 mmHg 88%
17:00 +14°C° 1.1 mm 1 mps 757 mmHg 92%
18:00 +13°C° 1.1 mm 1 mps 757 mmHg 96%
19:00 +13°C° 2.9 mm 1 mps 757 mmHg 97%
20:00 +13°C° 2.9 mm 1 mps 758 mmHg 98%
21:00 +13°C° 2.9 mm 1 mps 758 mmHg 98%
22:00 +13°C° 0.8 mm 2 mps 757 mmHg 98%
23:00 +12°C° 0.8 mm 3 mps 757 mmHg 97%

Day after tomorrow, 20 April, Tuesday

Time Temperature Precipitation Wind Pressure Humidity
00:00 +13°C° 0.8 mm 3 mps 757 mmHg 97%
01:00 +13°C° 0.1 mm 4 mps 756 mmHg 96%
02:00 +13°C° 0.1 mm 4 mps 756 mmHg 95%
03:00 +13°C° 0.1 mm 5 mps 756 mmHg 94%
04:00 +13°C° 0.3 mm 5 mps 755 mmHg 93%
05:00 +13°C° 0.3 mm 6 mps 754 mmHg 92%
06:00 +12°C° 0.3 mm 7 mps 754 mmHg 92%
07:00 +13°C° 0 mm 8 mps 753 mmHg 87%
08:00 +15°C° 0 mm 9 mps 753 mmHg 81%
09:00 +16°C° 0 mm 10 mps 752 mmHg 76%
10:00 +16°C° 0.1 mm 10 mps 752 mmHg 74%
11:00 +17°C° 0.1 mm 11 mps 751 mmHg 71%
12:00 +18°C° 0.1 mm 11 mps 751 mmHg 68%
13:00 +18°C° 0.2 mm 11 mps 751 mmHg 68%
14:00 +18°C° 0.2 mm 10 mps 751 mmHg 68%
15:00 +18°C° 0.2 mm 10 mps 751 mmHg 67%
16:00 +18°C° 0.3 mm 8 mps 751 mmHg 70%
17:00 +18°C° 0.3 mm 7 mps 751 mmHg 73%
18:00 +17°C° 0.3 mm 6 mps 751 mmHg 76%
19:00 +17°C° 0.6 mm 5 mps 752 mmHg 79%
20:00 +16°C° 0.6 mm 5 mps 753 mmHg 83%
21:00 +16°C° 0.6 mm 5 mps 754 mmHg 86%
22:00 +15°C° 0.3 mm 4 mps 754 mmHg 85%
23:00 +14°C° 0.3 mm 3 mps 755 mmHg 83%

21 April, Wednesday

Time Temperature Precipitation Wind Pressure Humidity
00:00 +13°C° 0.3 mm 3 mps 755 mmHg 82%
01:00 +13°C° 0.2 mm 3 mps 756 mmHg 82%
02:00 +12°C° 0.2 mm 3 mps 756 mmHg 83%
03:00 +12°C° 0.2 mm 3 mps 757 mmHg 83%
04:00 +11°C° 0.1 mm 4 mps 758 mmHg 82%
05:00 +10°C° 0.1 mm 5 mps 758 mmHg 82%
06:00 +9°C° 0.1 mm 6 mps 759 mmHg 81%
07:00 +10°C° 0 mm 6 mps 759 mmHg 76%
08:00 +11°C° 0 mm 7 mps 760 mmHg 70%
09:00 +12°C° 0 mm 7 mps 760 mmHg 64%
10:00 +12°C° 0 mm 7 mps 760 mmHg 63%
11:00 +14°C° 0 mm 6 mps 760 mmHg 62%
12:00 +14°C° 0 mm 6 mps 761 mmHg 61%
13:00 +14°C° 0 mm 5 mps 761 mmHg 62%
14:00 +14°C° 0 mm 5 mps 761 mmHg 63%
15:00 +14°C° 0 mm 4 mps 761 mmHg 64%
16:00 +14°C° 0 mm 3 mps 762 mmHg 66%
17:00 +14°C° 0 mm 3 mps 762 mmHg 67%
18:00 +15°C° 0 mm 2 mps 762 mmHg 69%
19:00 +14°C° 0 mm 2 mps 763 mmHg 69%
20:00 +14°C° 0 mm 2 mps 763 mmHg 70%
21:00 +13°C° 0 mm 1 mps 763 mmHg 70%
22:00 +13°C° 0 mm 2 mps 763 mmHg 74%
23:00 +12°C° 0 mm 2 mps 763 mmHg 77%

22 April, Thursday

Time Temperature Precipitation Wind Pressure Humidity
00:00 +10°C° 0 mm 2 mps 763 mmHg 80%
01:00 +10°C° 0 mm 2 mps 763 mmHg 82%
02:00 +11°C° 0 mm 1 mps 764 mmHg 84%
03:00 +11°C° 0 mm 1 mps 764 mmHg 86%
04:00 +11°C° 0 mm 1 mps 764 mmHg 86%
05:00 +11°C° 0 mm 1 mps 764 mmHg 86%
06:00 +11°C° 0 mm 1 mps 764 mmHg 85%
07:00 +12°C° 0 mm 1 mps 764 mmHg 79%
08:00 +13°C° 0 mm 1 mps 764 mmHg 73%
09:00 +14°C° 0 mm 1 mps 764 mmHg 68%
10:00 +15°C° 0 mm 1 mps 764 mmHg 62%
11:00 +16°C° 0 mm 1 mps 764 mmHg 57%
12:00 +18°C° 0 mm 1 mps 764 mmHg 52%
13:00 +18°C° 0.1 mm 1 mps 764 mmHg 53%
14:00 +18°C° 0.1 mm 1 mps 764 mmHg 55%
15:00 +18°C° 0.1 mm 1 mps 764 mmHg 56%
16:00 +17°C° 0.2 mm 2 mps 764 mmHg 60%
17:00 +16°C° 0.2 mm 2 mps 764 mmHg 64%
18:00 +16°C° 0.2 mm 2 mps 764 mmHg 68%
19:00 +15°C° 0.1 mm 2 mps 764 mmHg 71%
20:00 +14°C° 0.1 mm 2 mps 764 mmHg 74%
21:00 +13°C° 0.1 mm 2 mps 764 mmHg 77%
22:00 +13°C° 0 mm 2 mps 764 mmHg 78%
23:00 +13°C° 0 mm 2 mps 764 mmHg 79%

23 April, Friday

Time Temperature Precipitation Wind Pressure Humidity
00:00 +12°C° 0 mm 2 mps 764 mmHg 80%
01:00 +12°C° 0 mm 2 mps 764 mmHg 83%
02:00 +10°C° 0 mm 2 mps 764 mmHg 85%
03:00 +10°C° 0 mm 3 mps 764 mmHg 88%
04:00 +10°C° 0.1 mm 3 mps 764 mmHg 89%
05:00 +10°C° 0.1 mm 3 mps 764 mmHg 90%
06:00 +10°C° 0.1 mm 3 mps 764 mmHg 91%
07:00 +11°C° 0.1 mm 3 mps 764 mmHg 86%
08:00 +13°C° 0.1 mm 2 mps 764 mmHg 81%
09:00 +14°C° 0.1 mm 2 mps 764 mmHg 76%
10:00 +15°C° 0.4 mm 2 mps 764 mmHg 72%
11:00 +16°C° 0.4 mm 2 mps 763 mmHg 68%
12:00 +17°C° 0.4 mm 2 mps 763 mmHg 64%
13:00 +17°C° 0.7 mm 3 mps 763 mmHg 63%
14:00 +17°C° 0.7 mm 4 mps 763 mmHg 62%
15:00 +17°C° 0.7 mm 4 mps 762 mmHg 61%
16:00 +17°C° 0.2 mm 4 mps 762 mmHg 66%
17:00 +15°C° 0.2 mm 4 mps 762 mmHg 70%
18:00 +14°C° 0.2 mm 4 mps 763 mmHg 75%
19:00 +13°C° 0 mm 4 mps 763 mmHg 79%
20:00 +12°C° 0 mm 3 mps 763 mmHg 84%
21:00 +10°C° 0 mm 3 mps 763 mmHg 89%
22:00 +10°C° 0 mm 3 mps 763 mmHg 90%
23:00 +10°C° 0 mm 3 mps 763 mmHg 92%
Show more